Tracking 27126 objects as of 30-Mar-2023
HD Live streaming from Space Station
objects crossing your sky now

HIMAWARI 3 AKM

Track HIMAWARI 3 AKM now!


NORAD ID: 22266
Int'l Code: 1984-080E
Perigee: 35,365.8 km
Apogee: 36,519.6 km
Inclination: 11.6 °
Period: 1,443.7 minutes
Semi major axis: 42313 km
RCS: 0.4466 m2 (medium)
Launch date: August 2, 1984
Source: Japan (JPN)
Launch site: TANEGASHIMA SPACE CENTER (TNSTA)

Note: This is a ROCKET BODY
Your satellite tracking list
Your tracking list is empty




NASA's NSSDC Master Catalog

Two Line Element Set (TLE):
1 22266U 84080E   23088.25334554 -.00000091  00000-0  00000-0 0  9991
2 22266  11.6106 324.6249 0136336  82.5199 119.1238  0.99742646105751
Source of the keplerian elements: AFSPC